星链-6209 (STARLINK-6209 )

导读 | 豆包AI

STARLINK-6209是美国太空探索技术公司(SpaceX)星链(Starlink)互联网星座中的卫星,于2023年6月12日发射入轨,属于星链项目第二批组网卫星。星链计划旨在构建全球卫星互联网,为全球偏远地区、海洋等网络覆盖薄弱区域提供高速互联网接入服务,该卫星与其他星链卫星协同,推进星座全球服务能力的构建。

基本信息
目录编号:
56877
目录名称:
STARLINK-6209
国际标识:
2023-083B
轨道中心:
EARTH
卫星名称:
星链-6209
卫星全名:
星链-6209 (STARLINK-6209 )
卫星状态:
在轨 (已飞行1053 天)
发射日期:
2023-06-12 UTC
国别 :
美国 (US)
星等 :
--
轨道信息
数据来源 国际轨道数据
星历时间: 2026-04-30T03:36:29+0800
11小时前
查看轨道信息
半长轴: 6861.223km
偏心率: 0.0001484
轨道倾角: 43.003°
近地点辐角 291.405°
升交点赤经 156.115°
平近点角 68.664°
近地点: 482.067km
远地点: 484.105km
周期: 94.268分钟
每日圈数: 15.275677
详细信息
固有亮度:
5
最大亮度:
2.4
卫星平台:
Starlink v1.5
覆盖范围:
全球
运营商:
太空探索技术公司
运营商所在国:
美国
制造商(研发单位):
太空探索技术公司
制造商所在国:
美国
使用方式:
暂无
卫星简介
星链(Starlink)计划是由太空探索技术公司(SpaceX)提出的一个巨型低轨卫星互联网星座项目,计划在2019年至2024年间在太空搭建由约1.2万颗卫星组成的“星链”网络,其中1584颗将部署在地球上空550千米处的近地轨道,并从2020年开始工作。该卫星仍在工作。
2D轨道图
3D轨道图
轨道高度分析图
轨道倾角分析图
轨道综合分析图
查看轨道综合分析图